Weather History for PABI - October, 2012

Change the Weather History Date:

Wednesday, October 10, 2012

  Actual Average Record
Temperature  
Mean Temperature 27 °F -  
Max Temperature 35 °F 32 °F 55 °F (2006)
Min Temperature 19 °F 18 °F -2 °F (1996)
Degree Days  
Heating Degree Days 38    
Moisture  
Dew Point 21 °F    
Average Humidity 74    
Maximum Humidity 89    
Minimum Humidity 38    
Precipitation  
Precipitation 0.00 in - - ()
Sea Level Pressure  
Sea Level Pressure 30.34 in    
Wind  
Wind Speed 5 mph (SE)    
Max Wind Speed 10 mph    
Max Gust Speed -    
Visibility 10 miles    
Events      
Averages and records for this station are not official NWS values.
T = Trace of Precipitation, MM = Missing Value Source: NWS Daily Summary

Daily Weather History Graph

Daily Weather History Graph

Search for Another Location

Airport or City:

Trip Planner

Search our weather history database for the weather conditions in past years. The results will help you decide how hot, cold, wet, or windy it might be!

Date:

Astronomy

Oct. 10, 2012 Rise Set
Actual Time 8:19 AM AKDT 6:38 PM AKDT
Civil Twilight 7:32 AM AKDT 7:25 PM AKDT
Nautical Twilight 6:37 AM AKDT 8:20 PM AKDT
Astronomical Twilight 5:39 AM AKDT 9:17 PM AKDT
Moon 1:26 AM AKDT (10/10) 5:09 PM AKDT (10/10)
Length of Visible Light 11h 53m
Length of Day
10h 18m
Waning Crescent, 26% of the Moon is Illuminated
Oct 10
Waning Crescent
Oct 15
New
Oct 21
First Quarter
Oct 29
Full
Nov 6
Last Quarter

Hourly Weather History & Observations

Time (AKDT) Temp. Windchill Dew Point Humidity Pressure Visibility Wind Dir Wind Speed Gust Speed Precip Events Conditions
12:53 AM 28.9 °F 19.8 °F 21.9 °F 75% 30.36 in 10.0 mi East 10.4 mph - N/A   Partly Cloudy
1:53 AM 28.9 °F 20.4 °F 21.9 °F 75% 30.35 in 10.0 mi East 9.2 mph - N/A   Overcast
2:53 AM 28.9 °F 19.8 °F 21.0 °F 72% 30.33 in 10.0 mi East 10.4 mph - N/A   Clear
3:43 AM 28.4 °F 21.2 °F 21.2 °F 74% 30.24 in 10.0 mi East 6.9 mph - N/A   Mostly Cloudy
3:53 AM 28.0 °F 20.0 °F 21.0 °F 75% 30.32 in 10.0 mi East 8.1 mph - N/A   Mostly Cloudy
4:10 AM 28.4 °F 20.4 °F 21.2 °F 74% 30.24 in 10.0 mi East 8.1 mph - N/A   Scattered Clouds
4:53 AM 27.0 °F 23.0 °F 21.0 °F 78% 30.31 in 10.0 mi SSE 3.5 mph - N/A   Mostly Cloudy
5:53 AM 26.1 °F - 21.9 °F 84% 30.31 in 10.0 mi Calm Calm - N/A   Overcast
6:53 AM 26.1 °F - 21.9 °F 84% 30.30 in 10.0 mi Calm Calm - N/A   Overcast
7:53 AM 26.1 °F - 23.0 °F 88% 30.31 in 10.0 mi Calm Calm - N/A   Mostly Cloudy
8:53 AM 27.0 °F - 24.1 °F 89% 30.32 in 10.0 mi Calm Calm - N/A   Mostly Cloudy
9:53 AM 27.0 °F - 24.1 °F 89% 30.34 in 10.0 mi Calm Calm - 0.00 in   Mostly Cloudy
10:53 AM 28.9 °F - 24.1 °F 82% 30.35 in 10.0 mi Calm Calm - N/A   Mostly Cloudy
11:53 AM 30.0 °F - 24.1 °F 79% 30.36 in 10.0 mi Calm Calm - N/A   Mostly Cloudy
12:53 PM 30.9 °F 27.5 °F 23.0 °F 72% 30.38 in 10.0 mi NNW 3.5 mph - N/A   Mostly Cloudy
1:53 PM 32.0 °F - 19.9 °F 61% 30.39 in 10.0 mi Calm Calm - N/A   Mostly Cloudy
2:53 PM 33.1 °F - 18.0 °F 54% 30.38 in 10.0 mi Calm Calm - N/A   Scattered Clouds
3:53 PM 34.0 °F - 18.0 °F 52% 30.38 in 10.0 mi Calm Calm - N/A   Scattered Clouds
4:53 PM 34.0 °F - 19.0 °F 54% 30.38 in 10.0 mi Calm Calm - N/A   Scattered Clouds
5:53 PM 33.1 °F 28.7 °F 19.9 °F 59% 30.38 in 10.0 mi WSW 4.6 mph - N/A   Partly Cloudy
6:53 PM 30.0 °F - 21.9 °F 72% 30.38 in 10.0 mi Calm Calm - N/A   Clear
7:53 PM 28.9 °F 25.2 °F 19.0 °F 67% 30.37 in 10.0 mi SSW 3.5 mph - N/A   Clear
8:53 PM 25.0 °F 18.1 °F 21.0 °F 85% 30.37 in 10.0 mi SSW 5.8 mph - N/A   Clear
9:53 PM 23.0 °F 17.0 °F 18.0 °F 81% 30.36 in 10.0 mi South 4.6 mph - N/A   Clear
10:53 PM 19.9 °F 13.4 °F 17.1 °F 89% 30.33 in 10.0 mi SSE 4.6 mph - N/A   Clear
11:53 PM 19.9 °F 10.1 °F 17.1 °F 89% 30.31 in 10.0 mi ESE 8.1 mph - N/A   Clear